Weather History for KSFY - October, 2013

Change the Weather History Date:

Monday, October 28, 2013

  Actual Average (KCWI) Record (KCWI)
Temperature  
Mean Temperature 42 °F -  
Max Temperature 56 °F 59 °F 79 °F (1950)
Min Temperature 30 °F 38 °F 17 °F (1969)
Degree Days  
Heating Degree Days 22    
Moisture  
Dew Point 34 °F    
Average Humidity 73    
Maximum Humidity 92    
Minimum Humidity 54    
Precipitation  
Precipitation 0.00 in - - ()
Sea Level Pressure  
Sea Level Pressure 30.23 in    
Wind  
Wind Speed 6 mph (NE)    
Max Wind Speed 17 mph    
Max Gust Speed 22 mph    
Visibility 10 miles    
Events      
Averages and records for this station are not official NWS values.
T = Trace of Precipitation, MM = Missing Value Source: NWS Daily Summary

Daily Weather History Graph

Daily Weather History Graph

Search for Another Location

Airport or City:

Trip Planner

Search our weather history database for the weather conditions in past years. The results will help you decide how hot, cold, wet, or windy it might be!

Date:

Astronomy

Oct. 28, 2013 Rise Set
Actual Time 7:28 AM CDT 5:59 PM CDT
Civil Twilight 6:59 AM CDT 6:27 PM CDT
Nautical Twilight 6:26 AM CDT 7:00 PM CDT
Astronomical Twilight 5:54 AM CDT 7:33 PM CDT
Moon 1:15 AM CDT (10/28) 2:46 PM CDT (10/28)
Length of Visible Light 11h 28m
Length of Day
10h 30m
Waning Crescent, 34% of the Moon is Illuminated
Oct 28
Waning Crescent
Nov 3
New
Nov 9
First Quarter
Nov 17
Full
Nov 25
Last Quarter

Hourly Weather History & Observations

Time (CDT) Temp. Windchill Dew Point Humidity Pressure Visibility Wind Dir Wind Speed Gust Speed Precip Events Conditions
12:15 AM 39.2 °F - 29.3 °F 68% 30.03 in 10.0 mi Calm Calm - N/A   Clear
12:35 AM 38.7 °F - 29.3 °F 69% 30.03 in 10.0 mi Calm Calm - N/A   Clear
12:55 AM 37.8 °F - 29.8 °F 73% 30.04 in 10.0 mi Calm Calm - N/A   Clear
1:15 AM 34.3 °F - 30.2 °F 85% 30.04 in 10.0 mi Calm Calm - N/A   Clear
1:35 AM 35.4 °F - 31.1 °F 84% 30.04 in 10.0 mi Calm Calm - N/A   Clear
1:55 AM 34.7 °F - 31.3 °F 87% 30.05 in 10.0 mi Calm Calm - N/A   Clear
2:15 AM 34.5 °F - 31.1 °F 87% 30.06 in 10.0 mi Calm Calm - N/A   Clear
2:35 AM 34.0 °F - 31.5 °F 90% 30.06 in 10.0 mi Calm Calm - N/A   Clear
2:55 AM 33.3 °F - 31.1 °F 92% 30.07 in 10.0 mi Calm Calm - N/A   Clear
3:15 AM 32.4 °F 29.1 °F 29.7 °F 90% 30.07 in 10.0 mi NNE 3.5 mph - N/A   Clear
3:35 AM 31.5 °F 28.1 °F 29.1 °F 91% 30.07 in 10.0 mi NE 3.5 mph - N/A   Clear
3:55 AM 31.8 °F 27.3 °F 29.1 °F 90% 30.10 in 10.0 mi NNE 4.6 mph - N/A   Clear
4:15 AM 31.1 °F 27.7 °F 28.6 °F 90% 30.10 in 10.0 mi NE 3.5 mph - N/A   Clear
4:35 AM 31.5 °F - 28.8 °F 90% 30.11 in 10.0 mi Calm Calm - N/A   Clear
4:55 AM 30.7 °F 27.3 °F 28.2 °F 90% 30.12 in 10.0 mi NNE 3.5 mph - N/A   Clear
5:15 AM 32.0 °F - 29.1 °F 89% 30.13 in 10.0 mi Calm Calm - N/A   Clear
5:35 AM 32.0 °F 27.5 °F 28.6 °F 87% 30.14 in 10.0 mi North 4.6 mph - N/A   Clear
5:55 AM 32.4 °F 26.9 °F 29.3 °F 88% 30.15 in 10.0 mi North 5.8 mph - N/A   Clear
6:15 AM 33.3 °F 27.9 °F 29.3 °F 85% 30.16 in 10.0 mi NNE 5.8 mph - N/A   Clear
6:35 AM 34.7 °F 30.6 °F 30.0 °F 83% 30.17 in 10.0 mi NE 4.6 mph - N/A   Clear
6:55 AM 36.1 °F 30.6 °F 31.3 °F 83% 30.18 in 10.0 mi NE 6.9 mph - N/A   Clear
7:15 AM 37.9 °F 30.9 °F 32.0 °F 79% 30.19 in 10.0 mi NE 10.4 mph - N/A   Clear
7:35 AM 37.9 °F 32.1 °F 32.0 °F 79% 30.20 in 10.0 mi NE 8.1 mph - N/A   Clear
7:55 AM 37.9 °F 31.5 °F 32.7 °F 81% 30.21 in 10.0 mi NE 9.2 mph - N/A   Clear
8:15 AM 39.0 °F 32.8 °F 33.3 °F 80% 30.22 in 10.0 mi NE 9.2 mph - N/A   Clear
8:35 AM 40.1 °F 34.1 °F 34.0 °F 79% 30.24 in 10.0 mi NE 9.2 mph - N/A   Clear
8:55 AM 41.4 °F 34.7 °F 34.7 °F 77% 30.24 in 10.0 mi NE 11.5 mph 16.1 mph N/A   Clear
9:15 AM 43.2 °F 36.6 °F 35.6 °F 75% 30.26 in 10.0 mi ENE 12.7 mph 16.1 mph N/A   Clear
9:35 AM 44.4 °F 38.2 °F 36.0 °F 72% 30.27 in 10.0 mi NE 12.7 mph 18.4 mph N/A   Clear
9:55 AM 45.5 °F 38.6 °F 36.3 °F 70% 30.27 in 10.0 mi ENE 16.1 mph 21.9 mph N/A   Clear
10:15 AM 47.3 °F - 36.9 °F 67% 30.27 in 10.0 mi NE 17.3 mph 21.9 mph N/A   Clear
10:35 AM 47.7 °F - 36.9 °F 66% 30.28 in 10.0 mi ENE 16.1 mph 21.9 mph N/A   Scattered Clouds
10:55 AM 48.2 °F - 37.2 °F 66% 30.29 in 10.0 mi NE 16.1 mph 20.7 mph N/A   Scattered Clouds
11:15 AM 50.0 °F - 37.8 °F 63% 30.29 in 10.0 mi ENE 12.7 mph 19.6 mph N/A   Clear
11:35 AM 51.4 °F - 38.5 °F 61% 30.29 in 10.0 mi ENE 13.8 mph 21.9 mph N/A   Clear
11:55 AM 52.2 °F - 38.5 °F 60% 30.29 in 10.0 mi ENE 12.7 mph 19.6 mph N/A   Scattered Clouds
12:15 PM 50.9 °F - 38.1 °F 62% 30.29 in 10.0 mi ENE 11.5 mph - N/A   Scattered Clouds
12:35 PM 54.3 °F - 38.8 °F 56% 30.28 in 10.0 mi ENE 13.8 mph - N/A   Scattered Clouds
12:55 PM 55.2 °F - 38.8 °F 54% 30.28 in 10.0 mi ENE 11.5 mph 19.6 mph N/A   Scattered Clouds
1:15 PM 55.2 °F - 38.8 °F 54% 30.27 in 10.0 mi ENE 12.7 mph 18.4 mph N/A   Scattered Clouds
1:35 PM 55.8 °F - 39.2 °F 54% 30.26 in 10.0 mi ENE 11.5 mph 17.3 mph N/A   Scattered Clouds
1:55 PM 54.0 °F - 38.5 °F 56% 30.27 in 10.0 mi NE 13.8 mph - N/A   Mostly Cloudy
2:15 PM 54.9 °F - 38.3 °F 54% 30.26 in 10.0 mi NNE 11.5 mph 19.6 mph N/A   Scattered Clouds
2:35 PM 54.1 °F - 38.3 °F 55% 30.26 in 10.0 mi ENE 12.7 mph - N/A   Scattered Clouds
2:55 PM 52.9 °F - 37.4 °F 56% 30.27 in 10.0 mi NE 12.7 mph 21.9 mph N/A   Clear
3:15 PM 52.7 °F - 37.4 °F 56% 30.27 in 10.0 mi NE 15.0 mph - N/A   Clear
3:35 PM 52.5 °F - 37.6 °F 57% 30.27 in 10.0 mi NNE 13.8 mph - N/A   Clear
3:55 PM 51.6 °F - 36.9 °F 57% 30.28 in 10.0 mi NNE 15.0 mph - N/A   Clear
4:15 PM 50.0 °F - 36.5 °F 60% 30.28 in 10.0 mi NE 15.0 mph - N/A   Clear
4:35 PM 49.6 °F - 36.7 °F 61% 30.28 in 10.0 mi NE 15.0 mph - N/A   Clear
4:55 PM 49.1 °F - 36.5 °F 62% 30.29 in 10.0 mi NNE 15.0 mph - N/A   Clear
5:15 PM 47.3 °F - 35.6 °F 64% 30.29 in 10.0 mi NE 10.4 mph 20.7 mph N/A   Clear
5:35 PM 46.4 °F 41.5 °F 35.6 °F 66% 30.29 in 10.0 mi NE 10.4 mph 19.6 mph N/A   Clear
5:55 PM 45.5 °F 41.3 °F 35.4 °F 68% 30.30 in 10.0 mi NNE 8.1 mph - N/A   Clear
6:15 PM 44.2 °F 39.7 °F 35.1 °F 70% 30.31 in 10.0 mi NE 8.1 mph - N/A   Clear
6:35 PM 43.7 °F 39.7 °F 34.9 °F 71% 30.32 in 10.0 mi NNE 6.9 mph - N/A   Clear
6:55 PM 42.3 °F 38.6 °F 34.3 °F 74% 30.33 in 10.0 mi NNE 5.8 mph - N/A   Clear
7:15 PM 41.2 °F 37.3 °F 34.2 °F 76% 30.33 in 10.0 mi NE 5.8 mph - N/A   Clear
7:35 PM 41.0 °F 37.1 °F 33.8 °F 76% 30.33 in 10.0 mi NNE 5.8 mph - N/A   Clear
7:55 PM 40.1 °F 36.9 °F 33.8 °F 78% 30.33 in 10.0 mi North 4.6 mph - N/A   Clear
8:15 PM 39.6 °F 36.3 °F 33.3 °F 78% 30.33 in 10.0 mi NNE 4.6 mph - N/A   Clear
8:35 PM 39.9 °F 35.8 °F 33.8 °F 79% 30.34 in 10.0 mi NE 5.8 mph - N/A   Clear
8:55 PM 39.7 °F 36.5 °F 33.3 °F 78% 30.34 in 10.0 mi NNE 4.6 mph - N/A   Clear
9:15 PM 40.3 °F 38.2 °F 33.3 °F 76% 30.35 in 10.0 mi NE 3.5 mph - N/A   Clear
9:35 PM 39.7 °F 36.5 °F 32.9 °F 77% 30.35 in 10.0 mi NE 4.6 mph - N/A   Clear
9:55 PM 39.9 °F 35.1 °F 32.9 °F 76% 30.35 in 10.0 mi NE 6.9 mph - N/A   Clear
10:15 PM 39.9 °F 35.8 °F 32.5 °F 75% 30.36 in 10.0 mi NE 5.8 mph - N/A   Clear
10:35 PM 39.7 °F 34.9 °F 32.0 °F 74% 30.37 in 10.0 mi ENE 6.9 mph - N/A   Clear
10:55 PM 39.4 °F 34.5 °F 31.8 °F 74% 30.36 in 10.0 mi ENE 6.9 mph - N/A   Clear
11:15 PM 39.2 °F 33.6 °F 31.6 °F 74% 30.36 in 10.0 mi ENE 8.1 mph - N/A   Clear
11:35 PM 39.6 °F 34.0 °F 30.9 °F 71% 30.36 in 10.0 mi ENE 8.1 mph - N/A   Clear
11:55 PM 39.4 °F 35.2 °F 30.7 °F 71% 30.35 in 10.0 mi ENE 5.8 mph - N/A   Scattered Clouds